User: anonymous   Login
Location: Caltech
(34.1382°N, 118.1253°W)
Time: 04:10:16
(UTC-08:00)
Language:

Iridium 14 - Orbit

View from above orbital plane
View from above orbital plane
View from above satellite
View from above satellite

Ground track
Ground track

The orbit data is extracted from the following two-line orbital elements,

1 25777U 99032A   14332.13832575  .00000532  00000-0  18278-3 0  1764
2 25777 086.3980 253.4944 0002245 108.8563 023.8026 14.34212863821083
Epoch (UTC): 28 November 2014 03:19:11
Eccentricity: 0.0002245
inclination: 86.3980°
perigee height: 776 km
apogee height: 779 km
right ascension of ascending node: 253.4944°
argument of perigee: 108.8563°
revolutions per day: 14.34212863
mean anomaly at epoch: 23.8026°
orbit number at epoch: 82108

The dashed part of the orbit path shows where the satellite is in the earth's shadow,  

DLR